Location: Napa Junction
(38.1874°N, 122.2508°W)
Time: 16:03:01
(UTC+00:00)

SL-16 R/B - Pass Details

Date: 08 September 2024
Orbit: 842 x 845 km, 71.0° (Epoch: 08 October)

Event Time Altitude Azimuth Distance (km) Brightness Sun altitude
Rises 12:55:27 0° 325° (NW) 3,409 5.2 -10.4°
Reaches altitude 10° 12:58:13 10° 314° (NW) 2,470 4.3 -9.9°
Maximum altitude 13:02:54 28° 258° (WSW) 1,552 3.0 -9.0°
Drops below altitude 10° 13:07:36 10° 201° (SSW) 2,457 4.3 -8.1°
Sets 13:10:21 0° 190° (S) 3,387 5.1 -7.6°
